When you browse on this site, cookies collect data to enhance your experience and personalize the content and advertising you see.
Visit our Privacy Policy to learn more. By continuing to use the site, you agree to this use of cookies and data.
  • In Latvia
  • List of Countries
  • For 7 days
  • Water Temperature
  • Weather Map
  • Weather Widgets
  • user-avatar
    Login

    Hourly Weather Martigny

    Today, 19 September, Thursday

    Time Temperature Precipitation Wind Pressure Humidity
    00:00 +13°C° 0 mm 0 mps 705 mmHg 92%
    01:00 +13°C° 0 mm 0 mps 705 mmHg 91%
    02:00 +13°C° 0 mm 0 mps 705 mmHg 91%
    03:00 +13°C° 0 mm 0 mps 705 mmHg 91%
    04:00 +13°C° 0 mm 0 mps 705 mmHg 90%
    05:00 +13°C° 0 mm 0 mps 705 mmHg 89%
    06:00 +14°C° 0 mm 0 mps 705 mmHg 88%
    07:00 +18°C° 0 mm 1 mps 706 mmHg 80%
    08:00 +20°C° 0 mm 1 mps 706 mmHg 72%
    09:00 +22°C° 0 mm 1 mps 707 mmHg 64%
    10:00 +23°C° 0 mm 1 mps 707 mmHg 61%
    11:00 +24°C° 0 mm 2 mps 707 mmHg 58%
    12:00 +25°C° 0 mm 2 mps 707 mmHg 55%
    13:00 +24°C° 0 mm 2 mps 707 mmHg 57%
    14:00 +24°C° 0 mm 2 mps 707 mmHg 59%
    15:00 +23°C° 0 mm 2 mps 707 mmHg 62%
    16:00 +20°C° 0 mm 2 mps 706 mmHg 72%
    17:00 +19°C° 0 mm 1 mps 706 mmHg 82%
    18:00 +15°C° 0 mm 1 mps 706 mmHg 92%
    19:00 +15°C° 0 mm 1 mps 706 mmHg 92%
    20:00 +15°C° 0 mm 1 mps 707 mmHg 92%
    21:00 +15°C° 0 mm 1 mps 707 mmHg 91%
    22:00 +15°C° 0 mm 1 mps 707 mmHg 91%
    23:00 +15°C° 0 mm 1 mps 707 mmHg 91%

    Tomorrow, 20 September, Friday

    Time Temperature Precipitation Wind Pressure Humidity
    00:00 +14°C° 0 mm 1 mps 708 mmHg 90%
    01:00 +14°C° 0 mm 1 mps 707 mmHg 90%
    02:00 +14°C° 0 mm 1 mps 707 mmHg 89%
    03:00 +14°C° 0 mm 1 mps 707 mmHg 89%
    04:00 +14°C° 0 mm 1 mps 707 mmHg 88%
    05:00 +14°C° 0 mm 1 mps 707 mmHg 88%
    06:00 +15°C° 0 mm 1 mps 707 mmHg 88%
    07:00 +18°C° 0 mm 1 mps 707 mmHg 77%
    08:00 +21°C° 0 mm 1 mps 708 mmHg 67%
    09:00 +23°C° 0 mm 1 mps 708 mmHg 56%
    10:00 +24°C° 0 mm 1 mps 708 mmHg 54%
    11:00 +25°C° 0 mm 1 mps 708 mmHg 51%
    12:00 +26°C° 0 mm 2 mps 707 mmHg 49%
    13:00 +25°C° 0 mm 2 mps 707 mmHg 52%
    14:00 +25°C° 0 mm 2 mps 707 mmHg 55%
    15:00 +24°C° 0 mm 2 mps 706 mmHg 58%
    16:00 +22°C° 0 mm 1 mps 706 mmHg 70%
    17:00 +20°C° 0 mm 1 mps 706 mmHg 81%
    18:00 +15°C° 0 mm 0 mps 705 mmHg 92%
    19:00 +15°C° 0 mm 0 mps 706 mmHg 92%
    20:00 +16°C° 0 mm 1 mps 706 mmHg 91%
    21:00 +16°C° 0 mm 1 mps 706 mmHg 91%
    22:00 +16°C° 0 mm 1 mps 706 mmHg 91%
    23:00 +15°C° 0 mm 2 mps 706 mmHg 90%

    Day after tomorrow, 21 September, Saturday

    Time Temperature Precipitation Wind Pressure Humidity
    00:00 +15°C° 0 mm 2 mps 706 mmHg 90%
    01:00 +15°C° 0 mm 2 mps 706 mmHg 89%
    02:00 +15°C° 0 mm 2 mps 706 mmHg 88%
    03:00 +15°C° 0 mm 2 mps 705 mmHg 87%
    04:00 +15°C° 0 mm 2 mps 705 mmHg 86%
    05:00 +15°C° 0 mm 2 mps 705 mmHg 84%
    06:00 +15°C° 0 mm 2 mps 705 mmHg 83%
    07:00 +17°C° 0 mm 2 mps 705 mmHg 74%
    08:00 +21°C° 0 mm 1 mps 705 mmHg 66%
    09:00 +23°C° 0 mm 1 mps 706 mmHg 58%
    10:00 +24°C° 0 mm 1 mps 705 mmHg 55%
    11:00 +25°C° 0 mm 1 mps 705 mmHg 53%
    12:00 +26°C° 0 mm 1 mps 705 mmHg 50%
    13:00 +25°C° 0.1 mm 1 mps 704 mmHg 55%
    14:00 +24°C° 0.1 mm 2 mps 704 mmHg 60%
    15:00 +23°C° 0.1 mm 2 mps 703 mmHg 64%
    16:00 +21°C° 0.1 mm 2 mps 703 mmHg 70%
    17:00 +19°C° 0.1 mm 3 mps 703 mmHg 76%
    18:00 +18°C° 0.1 mm 3 mps 703 mmHg 82%
    19:00 +17°C° 0.1 mm 3 mps 703 mmHg 83%
    20:00 +17°C° 0.1 mm 3 mps 703 mmHg 84%
    21:00 +16°C° 0.1 mm 3 mps 703 mmHg 85%
    22:00 +16°C° 0 mm 3 mps 703 mmHg 85%
    23:00 +16°C° 0 mm 3 mps 702 mmHg 85%

    22 September, Sunday

    Time Temperature Precipitation Wind Pressure Humidity
    00:00 +16°C° 0 mm 3 mps 702 mmHg 85%
    01:00 +16°C° 0 mm 3 mps 702 mmHg 85%
    02:00 +16°C° 0 mm 3 mps 702 mmHg 85%
    03:00 +16°C° 0 mm 3 mps 702 mmHg 85%
    04:00 +16°C° 0 mm 3 mps 701 mmHg 85%
    05:00 +16°C° 0 mm 3 mps 701 mmHg 84%
    06:00 +16°C° 0 mm 3 mps 701 mmHg 84%
    07:00 +18°C° 0 mm 3 mps 701 mmHg 79%
    08:00 +19°C° 0 mm 2 mps 701 mmHg 73%
    09:00 +21°C° 0 mm 2 mps 701 mmHg 67%
    10:00 +23°C° 0 mm 2 mps 701 mmHg 64%
    11:00 +23°C° 0 mm 2 mps 701 mmHg 62%
    12:00 +24°C° 0 mm 2 mps 701 mmHg 59%
    13:00 +23°C° 0.3 mm 2 mps 701 mmHg 66%
    14:00 +21°C° 0.3 mm 2 mps 700 mmHg 73%
    15:00 +20°C° 0.3 mm 2 mps 700 mmHg 80%
    16:00 +19°C° 0.7 mm 2 mps 700 mmHg 84%
    17:00 +18°C° 0.7 mm 2 mps 701 mmHg 89%
    18:00 +17°C° 0.7 mm 2 mps 701 mmHg 94%
    19:00 +16°C° 2.9 mm 2 mps 701 mmHg 94%
    20:00 +15°C° 2.9 mm 2 mps 702 mmHg 95%
    21:00 +14°C° 2.9 mm 2 mps 702 mmHg 96%
    22:00 +14°C° 0.9 mm 1 mps 702 mmHg 95%
    23:00 +13°C° 0.9 mm 1 mps 702 mmHg 95%

    23 September, Monday

    Time Temperature Precipitation Wind Pressure Humidity
    00:00 +13°C° 0.9 mm 1 mps 702 mmHg 94%
    01:00 +13°C° 0 mm 1 mps 702 mmHg 95%
    02:00 +12°C° 0 mm 1 mps 701 mmHg 95%
    03:00 +12°C° 0 mm 1 mps 701 mmHg 96%
    04:00 +12°C° 0 mm 1 mps 702 mmHg 95%
    05:00 +12°C° 0 mm 1 mps 702 mmHg 95%
    06:00 +12°C° 0 mm 1 mps 702 mmHg 95%
    07:00 +13°C° 0 mm 1 mps 702 mmHg 89%
    08:00 +14°C° 0 mm 1 mps 702 mmHg 84%
    09:00 +16°C° 0 mm 1 mps 703 mmHg 79%
    10:00 +18°C° 0 mm 1 mps 702 mmHg 72%
    11:00 +18°C° 0 mm 2 mps 702 mmHg 65%
    12:00 +19°C° 0 mm 2 mps 702 mmHg 58%
    13:00 +19°C° 0 mm 2 mps 702 mmHg 58%
    14:00 +19°C° 0 mm 2 mps 702 mmHg 57%
    15:00 +19°C° 0 mm 2 mps 702 mmHg 57%
    16:00 +17°C° 0 mm 2 mps 702 mmHg 66%
    17:00 +15°C° 0 mm 1 mps 702 mmHg 76%
    18:00 +14°C° 0 mm 1 mps 702 mmHg 85%
    19:00 +13°C° 0 mm 1 mps 702 mmHg 85%
    20:00 +13°C° 0 mm 1 mps 702 mmHg 85%
    21:00 +13°C° 0 mm 1 mps 703 mmHg 85%
    22:00 +14°C° 0 mm 1 mps 703 mmHg 80%
    23:00 +14°C° 0 mm 1 mps 703 mmHg 76%

    24 September, Tuesday

    Time Temperature Precipitation Wind Pressure Humidity
    00:00 +14°C° 0 mm 1 mps 703 mmHg 72%
    01:00 +14°C° 0 mm 1 mps 703 mmHg 70%
    02:00 +15°C° 0 mm 1 mps 703 mmHg 67%
    03:00 +15°C° 0 mm 1 mps 703 mmHg 65%
    04:00 +15°C° 0 mm 1 mps 703 mmHg 67%
    05:00 +15°C° 0 mm 1 mps 703 mmHg 68%
    06:00 +15°C° 0 mm 1 mps 703 mmHg 69%
    07:00 +18°C° 0 mm 1 mps 703 mmHg 65%
    08:00 +21°C° 0 mm 1 mps 704 mmHg 61%
    09:00 +23°C° 0 mm 1 mps 704 mmHg 57%
    10:00 +23°C° 0 mm 1 mps 704 mmHg 58%
    11:00 +23°C° 0 mm 1 mps 703 mmHg 60%
    12:00 +23°C° 0 mm 1 mps 703 mmHg 62%
    13:00 +23°C° 0 mm 1 mps 703 mmHg 61%
    14:00 +24°C° 0 mm 1 mps 703 mmHg 60%
    15:00 +25°C° 0 mm 1 mps 703 mmHg 59%
    16:00 +23°C° 0 mm 1 mps 702 mmHg 67%
    17:00 +21°C° 0 mm 1 mps 702 mmHg 76%
    18:00 +19°C° 0 mm 1 mps 702 mmHg 84%
    19:00 +19°C° 0 mm 1 mps 702 mmHg 84%
    20:00 +18°C° 0 mm 1 mps 702 mmHg 83%
    21:00 +18°C° 0 mm 1 mps 702 mmHg 82%
    22:00 +18°C° 0 mm 1 mps 702 mmHg 79%
    23:00 +17°C° 0 mm 2 mps 702 mmHg 76%
    Show more